Regional Weather Roundup
Issued by NWS Little Rock, AR

Home | Current Version | Previous Version | Text Only | Print | Product List | Glossary On
Versions: 1 2 3 4 5 6 7 8 9 10 11 12 13 14 15 16 17 18 19 20 21 22 23 24 25 26 27 28 29 30 31
000
ASUS44 KLZK 152105
RWRLZK

WEATHER ROUNDUP FOR ARKANSAS
NATIONAL WEATHER SERVICE LITTLE ROCK AR
300 PM CST FRI DEC 15 2017

NOTE: "FAIR" INDICATES FEW OR NO CLOUDS BELOW 12,000 FEET WITH NO
SIGNIFICANT WEATHER AND/OR OBSTRUCTIONS TO VISIBILITY.

ARZ001-003-010-029-152200-
NORTHWEST ARKANSAS

CITY           SKY/WX    TMP DP  RH WIND       PRES   REMARKS
FAYETTEVILLE   SUNNY     47  28  47 W12       30.15S
FORT SMITH     MOSUNNY   52  30  43 W14       30.18F
HARRISON       SUNNY     47  27  45 W10G20    30.12S
BENTONVILLE    MOSUNNY   45  26  47 W8        30.16S HAZE
ROGERS         SUNNY     45  26  47 W14       30.14S
SILOAM SPGS    SUNNY     46  26  45 W10       30.16S
HIGHFILL       MOSUNNY   47  27  45 W13       30.15S
SPRINGDALE     SUNNY     46  27  46 W9G16     30.16S
$$

ARZ004-005-016-152200-
NORTH CENTRAL ARKANSAS

CITY           SKY/WX    TMP DP  RH WIND       PRES   REMARKS
BATESVILLE     MOSUNNY   52  29  41 W6        30.12F
FLIPPIN        SUNNY     49  27  42 NW8       30.13S
MTN HOME       SUNNY     48  28  46 NW7       30.12S
$$

ARZ040-041-152200-
WEST CENTRAL ARKANSAS

CITY           SKY/WX    TMP DP  RH WIND       PRES   REMARKS
MENA           SUNNY     54  32  43 NW6       30.17S
MOUNT IDA      SUNNY     55  30  38 MISG      30.14F
$$

ARZ009-017-025-026-028-152200-
NORTHEAST ARKANSAS

CITY           SKY/WX    TMP DP  RH WIND       PRES   REMARKS
JONESBORO      SUNNY     50  30  46 SW15      30.14F
NEWPORT        MOSUNNY   51  29  42 SW15      30.13F
WALNUT RIDGE   SUNNY     51  28  41 W8G20     30.12F
BLYTHEVILLE    SUNNY     49  29  46 W9        30.15S
$$

ARZ022-023-033-042-044-152200-
CENTRAL ARKANSAS

CITY           SKY/WX    TMP DP  RH WIND       PRES   REMARKS
LITTLE ROCK    MOSUNNY   52  29  41 SW8       30.17S
N LITTLE ROCK    N/A     52  32  45 W6        30.20S
JACKSONVILLE   SUNNY     54  29  39 W7        30.15F
SEARCY         SUNNY     52  30  43 SW10      30.16F
HOT SPRINGS    SUNNY     54  29  38 W9        30.17F
RUSSELLVILLE   SUNNY     51  28  41 W13       30.16S
CLINTON        FAIR      52  28  40 SW13      30.13F
$$

ARZ036-152200-
EAST ARKANSAS

CITY           SKY/WX    TMP DP  RH WIND       PRES   REMARKS
WEST MEMPHIS   SUNNY     47  28  47 SW6       30.17S
$$

ARZ050-053-066-070-073-152200-
SOUTHWEST ARKANSAS

CITY           SKY/WX    TMP DP  RH WIND       PRES   REMARKS
ARKADELPHIA    FAIR      54  30  40 SW6       30.20S
CAMDEN         SUNNY     55  27  33 SW7       30.20S
TEXARKANA      SUNNY     53  30  41 SW8       30.19F
EL DORADO      SUNNY     53  30  41 W7        30.21S
DE QUEEN       MOSUNNY   55  31  39 W12       30.17S
$$

ARZ056-057-069-152200-
SOUTHEAST ARKANSAS

CITY           SKY/WX    TMP DP  RH WIND       PRES   REMARKS
PINE BLUFF     SUNNY     50  28  42 SW9       30.19F
STUTTGART      SUNNY     50  28  42 SW10      30.19S
MONTICELLO     MOSUNNY   51  26  37 W5        30.20F

$$






USA.gov is the U.S. government's official web portal to all federal, state and local government web resources and services.